Regional Weather Roundup
Issued by NWS

Home | Current Version | Previous Version | Text Only | Print | Product List | Glossary Off
Versions: 1 2 3 4 5 6 7 8 9 10 11 12 13 14 15 16 17 18 19 20 21 22 23 24 25 26 27 28 29 30 31 32 33 34 35 36 37 38 39 40 41 42 43 44 45 46 47 48 49 50

000
ASUS45 KCYS 222310
RWRWY

WYOMING REGIONAL WEATHER ROUNDUP
NATIONAL WEATHER SERVICE CHEYENNE WY
500 PM MDT TUE JUL 22 2014

NOTE:  "FAIR" INDICATES FEW OR NO CLOUDS BELOW 12,000 FEET
WITH NO SIGNIFICANT WEATHER AND/OR OBSTRUCTIONS TO VISIBILITY.

WYZ001-230000-
YELLOWSTONE NATIONAL PARK

CITY           SKY/WX    TMP DP  RH WIND       PRES   REMARKS
LK YELLOWSTONE   N/A     75  37  25 W8        30.49S
W YELLOWSTONE  NOT AVBL

$$
WYZ002>013-054>058-071-098>099-230000-
NORTHERN WYOMING

CITY           SKY/WX    TMP DP  RH WIND       PRES   REMARKS
JACKSON        SUNNY     84  36  17 S12       30.35F
CODY           SUNNY     90  43  19 E6        30.21F
GREYBULL       SUNNY     97  37  12 E5        30.10F HX  92
WORLAND        SUNNY     96  33  11 SW5       30.12F HX  91
SHERIDAN       MOSUNNY   93  48  21 VRB5      30.14F
BUFFALO        MOSUNNY   92  43  18 N12       30.23S
GILLETTE       MOSUNNY   87  48  25 N16       30.17S
HULETT         TSTM      68  63  83 MISG      30.24
NEWCASTLE      FAIR      90  46  22 SE21      30.19

$$
WYZ014>020-022>026-101>103-230000-
CENTRAL WYOMING

CITY           SKY/WX    TMP DP  RH WIND       PRES   REMARKS
BIG PINEY      SUNNY     87  25  10 W9        30.40F
PINEDALE       PTCLDY    84  32  15 NW8       30.40F
DUBOIS         FAIR      81  32  17 W14G22    30.40F
LANDER         SUNNY     95  34  11 W8        30.23F HX  90
RIVERTON       MOSUNNY   93  37  14 NE17G23   30.24F
CASPER         SUNNY     91  34  13 VRB7      30.24S
DOUGLAS        SUNNY     91  51  25 SE12G22   30.26F

$$
WYZ021-027>030-104>119-230000-
SOUTHERN WYOMING

CITY           SKY/WX    TMP DP  RH WIND       PRES   REMARKS
EVANSTON       SUNNY     88  31  13 SW9G18    30.38F
KEMMERER       CLEAR    N/A N/A N/A SW9G18    30.41F
FORT BRIDGER   FAIR      91  27  10 SW12G22   30.40F
ROCK SPRINGS   SUNNY     90  23   9 VRB7      30.36F
DIXON          FAIR      94  22   7 W12       30.37F
RAWLINS        SUNNY     90  21   8 W8        30.37F
SARATOGA       FAIR      90  25   9 CALM      30.41S
LARAMIE        MOSUNNY   85  51  31 E15       30.41F
CHEYENNE       MOSUNNY   85  49  28 S10       30.35F
TORRINGTON     SUNNY     92  59  33 E14       30.19F HX  91
PINE BLUFFS    FAIR      90  50  25 SE13G20   30.28S

$$



USA.gov is the U.S. government's official web portal to all federal, state and local government web resources and services.